User: anonymous   Login
Location: Newark
(50.8086°N, 4.3114°E)
Time: 13:58:41
(UTC+00:00)
Language:

BEESAT 3 - Orbit

View from above orbital plane
View from above orbital plane
View from above satellite
View from above satellite

Ground track
Ground track

The orbit data is extracted from the following two-line orbital elements,

1 39134U 13015E   20025.17374323  .00001100  00000-0  58372-4 0  9990
2 39134  64.8633  25.8508 0038358 267.0370  92.6368 15.20683192374119
Epoch (UTC): 25 January 2020 04:10:11
Eccentricity: 0.0038358
inclination: 64.8633°
perigee height: 477 km
apogee height: 530 km
right ascension of ascending node: 25.8508°
argument of perigee: 267.0370°
revolutions per day: 15.20683192
mean anomaly at epoch: 92.6368°
orbit number at epoch: 37411

The dashed part of the orbit path shows where the satellite is in the earth's shadow,  

DLR